Presure
323 328 392 401 399 390 382 377 376 385 389 387 391 395 410 418 420 400 387 390 395 363 374 380 396 360 345 359 375 414 440 249 255 256 240 241 242 227 230 214 210 192 193 197
388 393 397 392 381 370 367 365 365 378 380 375 374 386 403 407 444 375 376 363 343 352 363 364 350 336 338 341 372 428 359 412 246 248 240 228 231 236 226 224 212 205 195 192
412 388 385 384 361 362 362 359 365 366 367 367 366 375 388 414 409 363 354 334 328 358 358 328 314 317 318 344 353 353 353 353 353 244 237 226 228 228 229 228 221 232 203 196
387 369 369 357 356 352 349 358 361 357 355 358 360 366 376 404 392 355 333 322 319 346 332 311 304 303 304 313 316 354 349 378 338 297 240 236 229 234 224 224 228 220 226 204
363 355 354 353 346 344 337 353 353 351 349 353 356 362 369 398 375 342 318 322 323 317 301 300 293 291 292 340 307 329 310 337 318 327 250 244 237 228 226 222 215 227 219 212
356 352 356 355 332 322 305 343 346 346 341 345 352 358 365 392 365 333 314 321 317 303 295 311 294 301 301 292 326 308 352 308 329 315 308 282 232 236 228 228 217 217 221 217
350 347 344 330 301 303 350 341 342 341 337 345 348 352 361 409 366 318 319 307 297 300 292 283 288 290 290 298 299 321 299 313 315 313 306 287 263 226 223 229 219 224 216 225
323 313 303 300 325 351 344 341 342 342 335 339 361 349 366 414 380 312 313 290 280 284 276 276 277 277 278 289 297 312 297 294 297 301 298 284 261 245 231 230 227 217 216 215
321 323 327 337 348 344 340 342 342 339 337 330 375 344 380 401 390 321 294 288 282 277 277 275 281 282 279 279 296 299 302 291 285 289 290 277 257 249 235 232 234 224 216 216
351 349 350 348 344 340 336 338 343 340 332 321 358 358 368 350 415 328 290 285 275 274 273 275 272 276 283 285 293 295 299 284 277 280 279 273 268 248 240 242 237 233 224 226
348 345 341 342 342 336 330 336 342 348 340 329 321 376 344 347 377 314 290 288 279 274 267 265 269 270 275 280 292 303 296 284 273 272 272 272 263 251 246 247 235 233 228 230
341 337 335 335 331 328 334 339 340 344 348 338 315 342 347 381 386 343 320 287 285 274 269 266 272 271 277 280 280 298 297 280 273 268 265 268 261 253 250 247 237 232 231 228
351 350 345 341 338 339 345 344 340 339 347 355 338 313 364 363 337 407 304 301 282 280 272 267 271 274 269 279 280 275 306 280 271 276 263 262 261 261 255 246 237 232 229 227
361 357 353 351 349 346 348 346 345 345 345 356 356 319 324 372 375 365 409 316 290 280 277 275 275 273 273 280 294 284 290 299 284 265 265 267 262 259 254 246 239 233 229 225
364 358 355 355 355 355 357 358 361 356 351 351 359 357 307 338 351 347 383 353 302 292 282 275 272 275 278 276 272 280 273 287 284 281 266 268 264 258 254 249 240 241 232 229
363 359 358 359 362 365 369 372 370 375 365 358 365 366 363 307 340 358 360 368 332 293 289 290 286 278 276 274 306 262 292 273 291 282 277 269 261 268 258 254 252 247 241 237
362 361 360 362 364 373 381 380 379 367 365 365 363 369 364 366 309 342 397 369 371 326 329 293 286 290 291 294 279 290 273 284 273 289 280 277 273 262 257 254 256 252 252 249
365 346 341 358 363 362 371 376 378 372 370 367 366 369 372 373 360 309 339 396 372 380 322 316 318 285 281 281 286 288 300 298 276 277 289 283 278 270 279 259 256 250 246 241
358 349 342 355 361 359 367 380 367 366 367 363 364 361 360 363 367 372 306 335 395 393 373 389 318 308 305 305 304 311 316 318 304 281 273 287 289 280 270 279 257 257 252 245
363 358 354 358 359 362 363 387 386 381 372 366 358 355 357 359 360 363 367 305 326 390 395 362 388 341 308 293 293 301 314 309 303 319 310 285 257 259 288 272 286 257 255 256
376 371 370 368 363 363 360 375 399 387 372 366 361 355 354 355 356 360 359 367 353 317 389 392 395 382 323 303 293 293 307 308 304 305 308 306 287 287 253 290 272 278 266 254
385 381 375 368 362 362 365 365 366 382 387 371 356 353 354 355 358 363 364 357 361 373 312 365 390 397 392 352 305 297 296 305 307 304 305 305 306 300 293 269 270 288 266 271
371 371 368 365 363 362 362 363 363 364 365 364 362 360 358 358 357 357 360 367 370 358 366 379 313 383 390 404 399 362 304 296 301 312 307 303 304 303 297 300 295 277 296 287
372 373 367 361 359 361 365 371 373 370 367 365 365 367 368 370 371 374 380 384 381 381 376 361 370 376 373 384 389 403 415 312 304 300 304 310 312 307 304 304 303 306 302 296
341 346 351 360 364 368 372 374 373 370 371 372 373 376 381 385 385 389 383 372 372 387 389 389 387 364 375 373 372 380 386 401 427 314 307 304 303 301 306 306 306 309 309 302
363 366 372 379 385 390 393 397 401 402 401 402 402 399 397 393 391 389 389 391 395 395 372 376 379 389 386 363 375 371 372 379 387 406 426 368 315 310 303 303 302 308 308 307
387 393 399 404 374 373 385 395 396 402 404 405 410 415 417 418 419 420 421 420 412 396 396 357 372 371 375 396 371 368 374 366 372 379 396 410 420 429 434 403 318 313 308 309
Wind_Speed
71 72 55 49 47 44 45 45 45 41 40 36 36 35 32 30 35 36 37 40 45 49 52 55 57 58 69 66 68 69 71 130 132 132 127 128 130 127 129 128 125 116 114 113
56 49 46 41 39 42 43 41 40 37 34 33 32 29 28 28 23 37 37 42 47 50 52 54 56 66 64 66 62 58 87 79 129 129 128 123 125 128 127 127 127 121 117 113
36 40 41 34 38 39 38 36 34 33 31 30 28 26 26 19 33 39 40 45 48 52 58 56 58 60 61 49 56 68 74 83 80 134 131 125 124 127 128 128 128 125 121 116
34 39 37 31 36 34 35 33 30 30 28 27 25 25 26 23 39 43 46 48 50 53 61 61 63 63 62 59 62 61 68 69 94 114 132 131 127 125 125 126 126 126 124 119
37 37 36 30 33 32 31 29 28 27 26 25 24 25 28 26 43 48 53 53 54 58 61 64 64 63 63 54 68 69 83 81 95 97 134 132 128 123 128 128 124 125 125 122
35 34 34 28 30 31 30 28 27 25 24 24 23 25 29 28 44 54 57 57 62 62 67 64 63 59 57 65 56 69 62 83 89 99 106 120 126 126 126 129 126 127 127 122
32 34 30 29 32 33 31 28 26 24 23 23 24 26 30 27 47 62 62 68 69 69 68 68 64 62 63 59 64 62 77 78 84 92 97 113 125 126 126 128 128 130 122 121
33 34 33 35 34 33 31 28 26 25 23 23 23 27 29 23 44 66 74 73 68 71 70 71 73 72 71 66 66 64 77 81 86 91 95 109 123 129 126 126 127 127 122 118
37 37 35 34 32 31 30 29 27 26 24 23 22 27 27 24 38 69 76 76 77 74 76 75 76 77 76 76 68 71 76 83 87 91 95 107 121 125 125 125 126 126 122 120
34 34 33 32 31 31 31 30 28 27 26 26 23 26 28 39 27 71 79 80 77 78 79 80 76 77 78 78 75 76 76 84 90 92 97 106 112 121 123 122 123 125 123 122
33 32 32 32 31 30 31 31 30 28 29 28 29 23 32 41 36 75 84 86 85 85 79 76 76 75 75 72 73 75 81 87 92 94 100 105 111 119 121 120 121 122 121 122
33 34 33 32 32 32 32 31 30 29 29 31 32 28 32 30 33 61 85 88 92 89 84 81 81 78 80 77 75 74 82 90 95 98 101 104 112 118 118 119 119 120 121 120
32 33 33 32 31 31 31 31 31 30 29 31 33 35 27 33 47 35 84 97 92 96 87 83 84 83 78 78 75 76 78 94 97 96 104 106 111 115 117 118 117 118 119 118
29 29 29 30 30 30 30 30 31 30 30 31 33 38 37 30 35 42 38 90 97 94 93 90 89 84 82 82 80 77 79 84 98 102 105 107 108 111 114 116 118 117 119 117
26 26 27 27 27 28 28 29 29 29 30 31 32 35 41 37 39 47 41 68 97 101 98 92 87 88 87 83 82 83 85 83 90 98 106 107 109 111 115 117 118 120 120 118
24 23 24 24 25 25 26 26 26 26 28 30 31 33 36 44 40 42 47 53 80 99 97 100 99 94 90 85 88 89 86 91 88 95 101 107 109 109 114 117 118 119 121 121
22 22 22 22 23 24 25 25 25 27 27 28 30 31 34 35 46 42 36 50 55 82 86 101 97 98 98 96 89 92 94 92 97 94 102 104 109 113 115 118 118 119 120 121
20 18 19 20 21 22 23 25 25 26 26 26 27 28 28 30 35 48 45 38 52 53 85 86 93 98 96 94 94 92 97 96 101 102 102 106 108 113 112 117 119 120 120 119
19 18 19 20 21 22 22 24 26 27 27 27 26 27 28 29 30 32 51 49 38 46 59 58 91 92 93 94 95 92 90 87 92 103 104 106 108 111 114 116 120 122 123 122
18 19 19 20 20 20 21 24 27 29 28 28 28 28 29 30 31 32 33 54 53 39 44 64 59 91 91 93 92 89 88 88 91 86 97 107 103 102 111 116 113 123 124 125
17 18 19 19 19 20 19 20 23 27 29 29 29 28 29 30 32 32 34 33 41 56 39 44 50 62 88 90 90 89 89 90 92 93 92 99 110 109 103 110 118 116 125 125
14 15 16 17 18 18 20 20 20 23 27 29 28 29 30 31 32 33 35 38 38 37 58 47 43 47 57 81 93 91 89 91 93 95 96 98 100 106 107 108 109 116 120 123
12 13 13 15 16 17 19 20 21 23 24 27 29 31 33 34 35 35 36 37 39 42 41 40 62 45 46 46 55 75 92 91 91 96 98 100 101 105 109 107 110 110 114 119
14 14 15 15 15 16 18 20 22 24 25 27 29 31 33 34 34 35 38 38 39 40 42 46 44 45 48 46 47 46 46 95 93 93 95 97 100 104 105 104 104 105 108 111
17 17 17 17 17 18 19 21 22 24 25 26 27 29 32 33 35 35 37 38 38 39 40 41 44 47 46 49 50 49 48 46 40 94 95 95 97 97 100 101 102 102 104 107
18 18 18 18 18 18 19 20 21 22 25 27 28 29 32 33 34 35 36 37 39 40 41 42 42 43 46 49 48 50 50 49 47 42 38 71 100 99 97 99 99 101 102 103
17 16 16 15 16 16 16 18 19 20 21 23 26 27 28 30 32 34 36 37 39 40 41 40 42 42 43 43 49 48 48 50 48 46 40 37 37 36 37 56 103 102 101 101
Wind_Direction
292 290 286 285 283 281 279 279 280 281 282 279 274 275 270 259 247 224 229 222 215 216 215 211 203 199 212 214 219 217 217 222 224 224 226 225 227 229 227 231 234 235 237 238
293 286 282 281 282 279 278 279 280 281 281 276 272 270 263 255 248 216 218 211 210 211 208 197 196 206 213 215 217 211 214 216 222 223 224 224 226 227 229 229 232 234 235 236
287 281 279 281 276 275 278 278 280 280 278 274 270 263 251 249 224 207 203 203 207 204 194 194 200 205 210 209 210 208 215 210 214 220 222 223 224 225 228 229 230 230 234 235
287 281 281 277 276 275 276 277 278 277 274 269 265 255 241 233 212 200 196 200 204 200 195 201 206 208 210 209 207 210 209 211 211 217 221 222 223 224 227 229 229 231 231 234
285 281 282 279 275 276 276 275 273 272 270 267 258 248 234 226 208 196 194 198 199 197 197 197 203 206 207 202 211 210 211 208 212 212 218 221 222 222 225 228 229 230 232 233
283 280 279 276 276 275 276 271 272 270 264 262 254 241 232 219 207 194 193 196 185 190 197 194 199 201 204 209 208 211 208 213 210 213 215 217 222 222 223 227 229 231 230 232
278 278 275 276 275 278 272 269 269 264 258 258 251 238 228 229 209 193 192 187 192 191 192 200 199 200 203 205 207 209 210 211 212 214 213 215 218 222 224 226 228 231 231 232
279 281 281 278 275 268 269 268 263 260 253 254 252 235 230 236 213 194 189 190 197 196 201 203 204 204 206 205 205 206 207 209 211 212 212 215 217 221 224 225 228 231 233 233
279 279 278 275 270 266 267 264 260 255 250 244 258 233 237 239 217 197 193 193 194 199 200 205 204 206 207 207 204 204 206 207 211 213 212 215 218 220 223 225 226 229 232 233
276 274 272 270 267 265 265 264 258 251 246 235 252 238 235 220 232 200 198 196 199 202 205 205 209 211 212 209 204 203 205 206 210 213 213 215 217 220 223 225 227 228 230 232
275 273 272 270 268 265 263 261 258 252 244 236 232 250 226 221 220 201 202 199 201 203 210 213 213 216 217 216 211 205 205 205 210 212 215 216 217 220 223 224 226 229 230 231
276 274 271 269 266 265 263 261 258 252 245 238 228 234 227 234 229 208 203 203 202 206 209 214 215 215 217 218 214 211 208 207 210 212 217 218 219 222 223 225 226 229 230 232
274 271 270 269 267 264 262 258 256 252 247 242 232 225 238 229 218 230 206 204 206 207 212 215 217 217 216 217 215 213 212 208 213 211 216 219 221 222 223 226 228 230 233 234
273 272 271 268 266 264 261 257 253 250 246 244 239 223 224 237 230 224 227 208 208 211 212 215 217 218 218 220 219 214 216 216 214 217 218 219 222 224 226 226 229 231 233 234
273 270 269 269 267 264 261 258 253 249 245 241 240 237 222 225 226 221 227 217 210 212 214 217 220 220 220 216 216 217 215 217 217 218 219 221 221 224 226 227 229 231 234 236
274 273 272 271 269 265 262 258 253 249 243 242 240 240 238 223 225 226 223 221 216 213 216 216 218 221 222 220 219 216 218 217 219 218 220 221 222 222 226 229 230 231 233 235
279 276 275 273 269 265 261 256 251 247 244 242 241 241 239 238 224 226 236 223 223 217 218 219 221 222 223 223 222 224 218 219 219 220 221 221 223 223 226 230 231 233 234 235
280 274 275 275 270 265 261 256 250 246 243 242 241 241 241 240 234 223 226 235 225 225 220 218 218 222 224 226 228 228 232 224 220 221 221 222 222 225 223 228 231 234 236 238
276 273 274 275 271 267 262 255 252 248 244 240 239 239 239 240 239 238 223 224 235 231 224 226 222 221 221 223 224 224 226 225 225 224 224 224 224 225 227 226 230 233 235 239
278 275 274 273 270 268 266 261 253 246 244 240 239 238 239 240 240 238 236 225 225 236 234 225 228 224 222 223 225 226 225 225 224 222 223 226 229 229 226 229 228 233 236 238
280 277 275 274 271 269 266 268 258 246 245 242 240 240 241 242 242 241 238 237 233 227 237 235 235 230 224 225 226 227 225 225 226 226 224 226 229 229 232 229 232 232 233 238
290 284 278 276 275 273 270 265 260 257 249 244 245 245 245 244 244 242 242 240 238 238 229 233 236 236 234 228 228 229 228 227 228 228 228 228 230 232 232 232 233 231 235 236
313 304 296 289 284 280 276 272 267 263 258 254 252 251 250 249 248 247 244 243 241 238 238 237 230 235 236 236 235 232 231 231 230 230 230 231 232 234 235 235 236 236 235 236
325 317 312 307 299 290 283 280 276 271 267 263 261 259 258 256 254 253 253 251 246 244 240 238 237 237 236 236 235 236 236 233 233 233 232 233 234 236 238 239 240 240 240 241
331 326 319 312 304 298 292 286 282 279 275 271 267 265 263 262 260 257 254 250 246 247 245 241 239 236 237 237 236 236 236 237 238 235 236 236 236 236 238 239 241 243 243 243
328 323 320 315 310 303 297 294 290 286 282 279 276 273 270 266 263 261 258 254 252 249 242 241 239 237 236 235 237 237 236 236 237 238 239 238 239 239 241 242 243 243 243 244
339 337 334 329 333 328 318 309 302 297 291 288 286 282 278 274 271 267 264 260 255 250 248 242 239 237 235 234 234 234 235 235 236 237 238 238 238 238 239 241 245 246 246 247